New River MCAS, NC

4:33 PM EDT on April 25, 2018 (GMT -0400)
New River Marine Corps Air Station

Weather History for KNCA - December, 2011

Change the Weather History Date:

Thursday, December 1, 2011

  Actual Average Record
Temperature  
Mean Temperature 43 °F -  
Max Temperature 54 °F 60 °F 75 °F (1998)
Min Temperature 30 °F 37 °F 26 °F (2002)
Degree Days  
Heating Degree Days 22    
Moisture  
Dew Point 30 °F    
Average Humidity 66    
Maximum Humidity 96    
Minimum Humidity 32    
Precipitation  
Precipitation 0.00 in - - ()
Sea Level Pressure  
Sea Level Pressure 30.28 in    
Wind  
Wind Speed 9 mph (NNW)    
Max Wind Speed 17 mph    
Max Gust Speed 21 mph    
Visibility 10 miles    
Events      
Averages and records for this station are not official NWS values.
T = Trace of Precipitation, MM = Missing Value Source: NWS Daily Summary

Daily Weather History Graph

Daily Weather History Graph

Search for Another Location

Airport or City:

Astronomy

Dec. 01, 2011 Rise Set
Actual Time 6:58 AM EST 4:58 PM EST
Civil Twilight 6:30 AM EST 5:26 PM EST
Nautical Twilight 5:59 AM EST 5:57 PM EST
Astronomical Twilight 5:29 AM EST 6:28 PM EST
Moon 11:52 AM EST (12/1) 11:43 PM EST (12/1)
Length of Visible Light 10h 55m
Length of Day
10h 00m
Waxing Crescent, 43% of the Moon is Illuminated
Dec 1
Waxing Crescent
Dec 2
First Quarter
Dec 10
Full
Dec 17
Last Quarter
Dec 24
New

Hourly Weather History & Observations

Time (EST) Temp. Windchill Dew Point Humidity Pressure Visibility Wind Dir Wind Speed Gust Speed Precip Events Conditions
12:56 AM 43.0 °F 36.8 °F 33.1 °F 68% 30.12 in 10.0 mi NNW 11.5 mph - N/A   Clear
1:56 AM 41.0 °F 34.3 °F 33.1 °F 73% 30.14 in 10.0 mi NNW 11.5 mph - N/A   Clear
2:56 AM 39.0 °F 34.0 °F 32.0 °F 76% 30.14 in 10.0 mi NNW 6.9 mph - N/A   Clear
3:56 AM 39.0 °F 32.3 °F 32.0 °F 76% 30.16 in 10.0 mi North 10.4 mph - N/A   Clear
4:56 AM 37.9 °F 32.1 °F 30.9 °F 76% 30.19 in 10.0 mi NNW 8.1 mph - N/A   Clear
5:56 AM 37.0 °F 31.6 °F 30.9 °F 79% 30.22 in 10.0 mi NNW 6.9 mph - N/A   Clear
6:56 AM 37.0 °F 32.4 °F 30.9 °F 79% 30.25 in 10.0 mi NNW 5.8 mph - N/A   Clear
7:56 AM 37.9 °F 32.7 °F 30.9 °F 76% 30.28 in 10.0 mi North 6.9 mph - N/A   Clear
8:56 AM 42.1 °F 33.9 °F 30.0 °F 62% 30.30 in 10.0 mi North 17.3 mph 20.7 mph N/A   Clear
9:56 AM 45.0 °F 38.5 °F 30.0 °F 56% 30.32 in 10.0 mi North 13.8 mph 20.7 mph N/A   Clear
10:56 AM 48.0 °F - 28.9 °F 48% 30.32 in 10.0 mi North 13.8 mph 19.6 mph N/A   Clear
11:56 AM 50.0 °F - 27.0 °F 41% 30.30 in 10.0 mi North 12.7 mph - N/A   Clear
12:56 PM 53.1 °F - 26.1 °F 35% 30.29 in 10.0 mi North 10.4 mph 18.4 mph N/A   Clear
1:56 PM 53.1 °F - 24.1 °F 32% 30.28 in 10.0 mi North 10.4 mph - N/A   Clear
2:56 PM 54.0 °F - 25.0 °F 33% 30.29 in 10.0 mi North 9.2 mph - N/A   Clear
3:56 PM 53.1 °F - 27.0 °F 37% 30.30 in 10.0 mi North 9.2 mph - N/A   Clear
4:56 PM 50.0 °F - 28.9 °F 44% 30.32 in 10.0 mi NNW 5.8 mph - N/A   Clear
5:56 PM 48.0 °F - 28.9 °F 48% 30.34 in 10.0 mi NNW 5.8 mph - N/A   Clear
6:56 PM 39.9 °F 37.8 °F 33.1 °F 77% 30.36 in 10.0 mi WNW 3.5 mph - N/A   Clear
7:56 PM 36.0 °F - 33.1 °F 89% 30.36 in 10.0 mi Calm Calm - N/A   Clear
8:56 PM 35.1 °F - 33.1 °F 92% 30.36 in 10.0 mi Calm Calm - N/A   Clear
9:56 PM 33.1 °F - 30.9 °F 92% 30.38 in 10.0 mi Calm Calm - N/A   Clear
10:56 PM 32.0 °F - 30.0 °F 92% 30.39 in 10.0 mi Calm Calm - N/A   Clear
11:56 PM 30.9 °F - 30.0 °F 96% 30.39 in 10.0 mi Calm Calm - N/A   Clear